TimeMST,TemperatureF,Dew PointF,Humidity,Sea Level PressureIn,VisibilityMPH,Wind Direction,Wind SpeedMPH,Gust SpeedMPH,PrecipitationIn,Events,Conditions,WindDirDegrees,DateUTC
12:03 AM,6.8,-0.4,72,29.99,3.0,NNW,21.9,29.9,0.00,Snow,Light Snow,340,2013-01-12 07:03:00
12:34 AM,8.6,-2.2,62,30.00,9.0,NNW,17.3,25.3,0.00,,Overcast,340,2013-01-12 07:34:00
12:53 AM,8.1,-2.0,64,30.22,9.0,NNW,16.1,-,0.00,,Overcast,340,2013-01-12 07:53:00
1:53 AM,8.1,-2.9,61,30.23,10.0,NNW,15.0,-,N/A,,Overcast,340,2013-01-12 08:53:00
2:53 AM,8.1,-0.0,70,30.25,4.0,NNW,10.4,-,0.00,Snow,Light Snow,340,2013-01-12 09:53:00
3:15 AM,8.6,1.4,73,30.03,4.0,NNW,13.8,-,0.00,Snow,Light Snow,340,2013-01-12 10:15:00
3:29 AM,8.6,1.4,73,30.03,4.0,NNW,12.7,-,0.00,Snow,Light Snow,330,2013-01-12 10:29:00
3:53 AM,8.1,1.9,76,30.23,6.0,NNW,11.5,-,0.00,,Haze,340,2013-01-12 10:53:00
4:53 AM,7.0,1.9,80,30.23,7.0,NE,3.5,-,N/A,,Overcast,40,2013-01-12 11:53:00
5:53 AM,6.1,1.9,83,30.25,3.0,SE,4.6,-,0.00,Snow,Light Snow,130,2013-01-12 12:53:00
6:53 AM,5.0,-0.9,76,30.27,10.0,SSE,3.5,-,0.00,,Overcast,160,2013-01-12 13:53:00
7:53 AM,3.0,-0.9,84,30.30,10.0,Calm,Calm,-,N/A,,Mostly Cloudy,0,2013-01-12 14:53:00
8:53 AM,3.0,-0.9,84,30.32,10.0,Calm,Calm,-,N/A,,Overcast,0,2013-01-12 15:53:00
9:53 AM,6.1,1.0,80,30.32,5.0,Calm,Calm,-,N/A,,Haze,0,2013-01-12 16:53:00
10:53 AM,8.1,1.9,76,30.32,2.5,SSE,6.9,-,0.00,Snow,Light Snow,150,2013-01-12 17:53:00
11:04 AM,8.6,1.4,73,30.08,2.0,SSE,8.1,-,0.00,Snow,Light Snow,150,2013-01-12 18:04:00
11:17 AM,8.6,1.4,73,30.08,4.0,SSE,9.2,-,0.00,,Haze,150,2013-01-12 18:17:00
11:29 AM,8.6,1.4,73,30.08,10.0,SE,9.2,-,0.00,,Overcast,140,2013-01-12 18:29:00
11:53 AM,9.0,1.0,70,30.29,10.0,SSE,10.4,-,0.00,,Overcast,150,2013-01-12 18:53:00
12:46 PM,8.6,1.4,73,30.05,10.0,SSE,8.1,-,N/A,,Scattered Clouds,160,2013-01-12 19:46:00
12:53 PM,9.0,1.9,73,30.27,10.0,South,9.2,-,N/A,,Partly Cloudy,180,2013-01-12 19:53:00
1:53 PM,10.0,1.9,70,30.27,10.0,South,5.8,-,N/A,,Scattered Clouds,180,2013-01-12 20:53:00
2:53 PM,10.0,1.0,67,30.28,10.0,South,3.5,-,N/A,,Mostly Cloudy,190,2013-01-12 21:53:00
3:44 PM,10.4,1.4,67,30.07,10.0,Calm,Calm,-,N/A,,Overcast,0,2013-01-12 22:44:00
3:53 PM,10.0,1.0,67,30.29,10.0,Calm,Calm,-,N/A,,Overcast,0,2013-01-12 22:53:00
4:26 PM,8.6,-0.4,67,30.07,10.0,East,3.5,-,N/A,,Scattered Clouds,100,2013-01-12 23:26:00
4:53 PM,8.1,-0.0,70,30.30,10.0,Calm,Calm,-,N/A,,Scattered Clouds,0,2013-01-12 23:53:00
5:53 PM,8.1,1.0,73,30.31,3.0,Calm,Calm,-,0.00,Snow,Light Snow,0,2013-01-13 00:53:00
6:53 PM,6.1,1.0,80,30.32,7.0,Calm,Calm,-,0.00,,Overcast,0,2013-01-13 01:53:00
7:53 PM,6.1,1.0,80,30.32,10.0,Calm,Calm,-,N/A,,Overcast,0,2013-01-13 02:53:00
8:53 PM,5.0,1.0,84,30.33,7.0,Calm,Calm,-,N/A,,Overcast,0,2013-01-13 03:53:00
9:53 PM,5.0,1.0,84,30.32,8.0,Calm,Calm,-,N/A,,Overcast,0,2013-01-13 04:53:00
10:35 PM,3.2,-0.4,85,30.09,6.0,SE,3.5,-,0.00,,Overcast,140,2013-01-13 05:35:00
11:53 PM,3.0,-0.0,87,30.34,5.0,Calm,Calm,-,N/A,,Overcast,0,2013-01-13 06:53:00